Location: Middlefield
(41.4620°N, 81.0737°W)
Time: 05:26:04
(UTC+00:00)

Daily predictions for brighter satellites

Satellite Brightness Start Highest point End
(mag) Time Altitude Azimuth Time Altitude Azimuth Time Altitude Azimuth
ERS-2 2.4 00:00:19 10° N 00:03:56 68° WNW 00:07:31 10° SSW
BREEZE-M DEB (TANK) 4.0 00:03:53 10° WNW 00:06:08 24° SW 00:07:21 16° S
Okean 1-7 Rocket 4.4 00:04:49 10° SSW 00:09:15 54° W 00:13:45 10° N
Cosmos 44 3.4 00:08:39 10° SSW 00:13:13 53° ESE 00:14:12 45° ENE
PSLV R/B 4.2 00:09:21 10° N 00:13:33 71° WNW 00:17:44 10° SSW
Nadezhda 4 Rocket 4.2 00:08:38 10° SSW 00:14:52 70° W 00:21:05 10° N
Cosmos 1328 4.2 00:15:07 10° S 00:18:15 47° SE 00:18:15 47° SE
Cosmos 1626 Rocket 3.5 00:14:45 10° S 00:19:06 82° W 00:22:50 14° N
CZ-4 R/B 1.9 00:15:12 10° S 00:19:17 62° W 00:23:19 10° NNW
EXPRESS MD2 3.7 00:12:36 10° WNW 00:19:38 86° SW 00:20:41 51° SE
Lacrosse 5 1.7 00:15:50 10° NW 00:20:53 68° NE 00:22:02 50° ESE
ARGOS 3.0 00:16:01 10° SSE 00:21:19 69° ENE 00:26:39 10° N
NOSS 2-1 (E) 4.1 00:19:37 10° SSW 00:21:39 31° S 00:21:39 31° S
Aureole 2 Rocket 4.5 00:21:23 10° WSW 00:23:46 22° WNW 00:25:13 16° NNW
CZ-4B R/B 4.4 00:23:27 10° NNW 00:25:32 16° WNW 00:27:35 10° WSW
Cosmos 1689 Rocket 3.6 00:27:27 33° WNW 00:27:35 33° WNW 00:30:11 10° SW
Hubble Space Telescope 3.1 00:27:38 10° SSW 00:29:39 13° S 00:30:03 13° S
CSL-04 Debris 4.0 00:26:50 10° SSE 00:32:14 86° ENE 00:37:39 10° NNW
CZ-2C R/B 2.6 00:31:47 44° NE 00:33:28 64° ESE 00:39:00 10° S
Cosmos 990 Rocket 3.9 00:29:55 10° SSW 00:35:08 90° SW 00:36:47 45° NNE
Cosmos 1844 4.4 00:35:40 10° SW 00:41:09 52° WNW 00:44:56 20° N
Okean-O 3.8 00:37:22 10° S 00:41:33 42° W 00:45:47 10° NNW
COSMOS 2455 4.4 00:36:50 10° WSW 00:42:04 30° NW 00:46:44 12° N
Cosmos 1833 Rocket 4.3 00:39:34 10° N 00:41:36 20° N 00:41:36 20° N
Cosmos 2082 Rocket 4.4 00:42:53 10° N 00:43:23 12° N 00:43:23 12° N
Cosmos 2026 Rocket 4.0 00:45:47 10° SSW 00:51:51 77° W 00:58:04 10° N
Cosmos 1553 Rocket 4.5 00:45:59 10° N 00:50:29 44° NNE 00:50:29 44° NNE
Meteor 2-19 Rocket 4.3 00:49:13 10° S 00:55:22 85° E 00:57:06 50° NNE
NOSS 3-1 (C) 4.0 00:48:04 10° NNW 00:55:37 66° NE 00:57:05 57° E
H-2A R/B 3.3 00:52:58 10° SSW 00:57:33 37° W 01:02:15 10° NNW
Meteor 1-11 4.2 00:55:26 10° S 01:00:48 79° SSW 01:00:48 79° SSW
Cosmos 1844 Rocket 4.4 00:57:38 10° WSW 01:02:32 30° NW 01:06:14 16° N
Cosmos 1898 Rocket 3.9 00:59:26 10° SSW 01:04:39 59° WNW 01:05:07 56° NW
Cosmos 1680 Rocket 4.0 01:02:42 10° NNW 01:07:49 56° WSW 01:08:26 52° SW
Cosmos 2278 Rocket 3.8 01:06:09 10° S 01:08:10 23° S 01:08:10 23° S
USA 229 DEB 4.0 01:05:24 10° NNW 01:11:45 57° NNE 01:11:45 57° NNE
USA 229 4.1 01:05:30 10° NNW 01:11:48 57° NNE 01:11:48 57° NNE
USA 267 3.1 01:13:39 86° NNE 01:13:48 88° NW 01:20:21 10° SW
SJ 16-02 4.1 01:19:56 10° W 01:22:17 14° WNW 01:24:09 11° NNW
Cosmos 2344 4.3 01:17:24 10° NW 01:27:05 79° NE 01:29:57 59° SE
NOSS 3-1 (A) 4.3 01:20:46 10° NNW 01:26:54 57° N 01:26:54 57° N
USA 234 4.4 01:49:42 34° NNW 01:49:42 34° NNW 01:53:20 10° NW
SJ 16-02 3.9 09:54:02 13° SSE 09:54:02 13° SSE 09:54:34 10° SSE
Lacrosse 5 rocket 4.0 09:58:46 13° NE 09:58:46 13° NE 09:59:40 10° NE
Atlas Centaur 2 4.2 09:56:30 24° S 09:58:57 28° SSE 10:05:49 10° ESE
Cosmos 2278 Rocket 3.7 10:02:15 19° N 10:05:33 32° ENE 10:10:36 10° ESE
Cosmos 2237 Rocket 3.7 10:09:30 10° S 10:14:36 36° ESE 10:19:44 10° NE
Cosmos 468 Rocket 4.0 10:15:13 72° SSE 10:15:38 77° ESE 10:20:56 10° NNE
BREEZE-M DEB (TANK) 4.1 10:15:12 39° NW 10:18:36 60° NNE 10:22:45 10° E
Cosmos 2333 Rocket 2.8 10:20:17 43° N 10:20:17 43° N 10:24:16 10° NNE
Cosmos 2219 Rocket 2.5 10:20:31 50° N 10:20:31 50° N 10:24:49 10° NNE
Cosmos 1464 Rocket 4.3 10:17:17 10° S 10:23:19 64° E 10:29:23 10° NNE
Cosmos 1937 Rocket 4.4 10:21:21 19° N 10:24:50 46° ENE 10:29:51 10° SE
GEOS 3 Rocket 4.2 10:26:58 10° SE 10:32:11 56° NE 10:34:54 28° NNW
Cosmos 1455 Rocket 3.0 10:29:15 10° S 10:33:36 78° E 10:37:57 10° N
IRIDIUM 104 4.2 10:32:50 10° S 10:38:01 67° W 10:43:14 10° N
SKYMED 2 3.5 10:34:06 10° SSE 10:38:27 83° ENE 10:39:48 44° N
COSMOS 2428 2.7 10:38:26 55° WNW 10:38:40 55° WNW 10:44:16 10° NNE
ATLAS CENTAUR R/B 4.3 10:39:00 10° SE 10:40:58 14° ESE 10:42:55 10° E
ERS-2 2.6 10:37:23 10° SSE 10:40:59 60° ENE 10:41:48 45° NNE
Meteor PRIRODA 4.0 10:40:02 10° NNE 10:43:39 63° ESE 10:47:13 10° S
Cosmos 1953 2.9 10:40:00 10° S 10:43:53 57° E 10:47:48 10° NNE
Cosmos 44 Rocket 4.0 10:43:15 25° NNW 10:46:11 57° NE 10:51:18 10° SE
Cosmos 1689 Rocket 3.6 10:43:57 10° SE 10:46:38 34° ENE 10:47:20 30° NE
IRIDIUM 114 4.3 10:42:04 10° SSW 10:47:10 55° W 10:52:18 10° N
Cosmos 1980 3.9 10:41:42 10° SSW 10:47:19 73° ESE 10:52:58 10° NNE
Cosmos 2360 Rocket 4.2 10:52:11 13° NNW 10:52:11 13° NNW 10:53:08 10° N
deb Chang Zheng 4 3.3 10:46:29 10° NNE 10:50:45 80° WNW 10:54:57 10° SSW
CZ-4B R/B 3.6 10:49:34 10° S 10:50:21 16° S 10:50:21 16° S
MOS 1 Rocket 3.4 10:50:02 10° SSE 10:55:07 86° E 10:59:55 10° N
Cosmos 540 Rocket 3.4 10:50:17 10° SSW 10:55:23 85° ESE 11:00:33 10° NNE
ADEOS 3.9 10:54:53 10° N 10:59:44 40° WNW 11:00:58 34° W
BREEZE-M DEB (TANK) 2.8 10:58:46 34° SSW 10:59:54 61° SE 11:06:33 10° ENE
Cosmos 2034 Rocket 4.0 10:54:27 10° S 11:00:51 89° E 11:07:15 10° N
Cosmos 990 Rocket 4.1 10:59:51 35° NW 11:01:33 50° WSW 11:06:29 10° S
CZ-2C R/B 3.1 10:59:52 16° SSW 11:02:00 24° SSE 11:05:13 10° ESE
Cosmos 1461 3.3 11:01:19 41° W 11:02:21 49° NW 11:07:00 10° NNE
PSLV R/B 3.9 10:58:32 10° SSE 11:02:38 82° ENE 11:06:47 10° N
Meteor 2-10 4.4 11:00:21 10° SSW 11:05:44 44° WNW 11:11:00 10° N
OAO 2 Rocket 4.2 11:04:20 25° SW 11:06:36 39° S 11:11:09 10° ESE
SL-8 R/B 3.7 11:06:33 34° NW 11:08:40 77° NNE 11:13:30 10° ESE
Nadezhda 4 Rocket 3.9 11:03:54 10° N 11:10:04 86° W 11:16:10 10° S
Cosmos 1892 Rocket 4.1 11:12:42 33° W 11:12:44 33° W 11:16:40 10° SSW
NOSS 3-2 (A) 4.4 11:10:54 10° S 11:16:06 45° ESE 11:21:58 10° NE
Meteor 1-16 Rocket 4.3 11:11:23 10° S 11:17:16 85° WNW 11:23:14 10° N
Cosmos 858 Rocket 4.5 11:14:37 14° NNW 11:19:05 60° WSW 11:24:11 10° S
Cosmos 1340 2.9 11:16:25 10° N 11:20:10 70° ENE 11:23:54 10° SSE
Cosmos 921 Rocket 4.0 11:21:02 26° NW 11:21:02 26° NW 11:24:07 10° N
Meteor 2-13 Rocket 4.4 11:17:16 10° NNW 11:23:24 67° W 11:29:27 10° S
Cosmos 1763 Rocket 4.2 11:21:23 22° W 11:23:31 29° WNW 11:28:05 10° N
Cosmos 1703 3.2 11:21:25 10° N 11:25:20 89° W 11:29:14 10° S
SAR-Lupe-4 3.8 11:22:38 10° S 11:26:07 47° W 11:28:45 16° NNW
COSMO-SKYMED 1 3.4 11:22:54 10° SSW 11:26:40 29° W 11:28:27 21° WNW
CZ-4B R/B 3.3 11:24:26 10° N 11:27:38 31° WNW 11:30:54 10° SW
Cosmos 841 Rocket 3.6 11:24:36 10° SW 11:29:34 51° WNW 11:34:36 10° N
Cosmos 1346 Rocket 4.3 11:28:25 10° N 11:32:08 37° ENE 11:35:51 10° SE
Cosmos 1898 Rocket 4.2 11:29:26 18° NW 11:32:18 31° W 11:36:47 10° SSW
H-2A R/B 3.3 11:33:39 10° N 11:37:00 33° WNW 11:40:21 10° SW
Lacrosse 5 rocket 1.5 11:34:24 15° NW 11:37:25 61° NE 11:41:05 10° ESE
Lacrosse 4 Rocket 1.5 11:35:34 10° SSW 11:39:45 79° ESE 11:44:05 10° NNE
Meteor 1-11 4.5 11:36:19 10° N 11:41:55 72° E 11:47:28 10° SSE
BREEZE M DEB (TANK) 1.6 11:41:00 11° SW 11:42:58 73° SSE 11:46:39 10° ENE
Cosmos 2098 Rocket 4.2 11:37:08 10° N 11:43:19 62° E 11:48:12 10° SSE
Cosmos 1570 Rocket 4.2 11:38:51 10° SW 11:43:52 47° WNW 11:48:56 10° N
Cosmos 2369 Rocket 4.4 11:39:47 10° N 11:43:57 21° NE 11:48:06 10° E
Cosmos 2298 Rocket 4.4 11:39:17 10° NNW 11:44:36 68° ENE 11:49:54 10° SSE
Cosmos 1544 Rocket 4.4 11:41:03 10° SW 11:44:42 26° WNW 11:48:23 10° NNW
SL-16 R/B 2.5 11:40:22 10° SSW 11:45:59 72° ESE 11:51:38 10° NNE
FALCON 9 DEB 4.0 11:44:29 18° W 11:46:27 32° NNW 11:49:35 10° NE
Cosmos 2026 Rocket 4.1 11:40:43 10° N 11:47:06 87° E 11:53:29 10° S
Atlas Centaur 2 4.2 11:40:29 10° WSW 11:47:50 38° S 11:55:32 10° ESE
Cosmos 2278 Rocket 2.7 11:44:28 10° NW 11:49:39 38° WSW 11:54:49 10° S
CZ-4B R/B 3.7 11:44:38 10° NNE 11:50:18 67° ESE 11:55:51 10° S
Cosmos 1400 Rocket 3.2 11:48:05 10° SSW 11:51:57 41° WNW 11:55:52 10° N
Cosmos 1328 3.8 11:49:38 10° NNW 11:53:30 56° W 11:57:19 10° S
CZ-4 R/B 4.5 11:55:11 10° NE 11:57:34 16° E 11:59:56 10° SE
